Location: Maccacari
(45.1333°N, 11.1333°E)
Time: 01:42:23
(UTC+00:00)

A-11 Canister half - Pass Details

Date: 24 January 2021
Orbit: 1525 x 1684 km, 47.3° (Epoch: 05 March)

Event Time Altitude Azimuth Distance (km) Brightness Sun altitude
Rises 20:41:31 0° 293° (WNW) 4,782 12.3 -46.9°
Reaches altitude 10° 20:44:53 10° 286° (WNW) 3,817 11.6 -47.4°
Enters shadow 20:51:12 33° 249° (WSW) 2,501 10.2 -48.4°
